M5DJC Weather Reports


time (UTC)temp
C
wind
direction
speed
KPH
gust
KPH
rain 1hr
cm
rain 24hr
cm
rain mn
cm
humidity
%
barometer
mb
20260506073033 7 290 1.6 14.5 0.00 0.00 0.00 83 1015.3
20260506071535 7 317 3.2 9.7 0.00 0.00 0.00 83 1015.1
20260506061547 5 316 3.2 8.0 0.00 0.00 0.00 90 1014.8
20260506044535 3 0 1.6 4.8 0.00 0.00 0.00 91 1014.7
20260506043034 3 267 1.6 8.0 0.00 0.00 0.00 91 1014.7
20260506041531 3 280 0.0 8.0 0.00 0.00 0.00 90 1014.6
20260506040031 4 271 0.0 4.8 0.00 0.00 0.00 90 1014.8
20260506034530 4 270 0.0 4.8 0.00 0.00 0.00 89 1014.9
20260506033034 5 285 0.0 8.0 0.00 0.00 0.00 89 1015.0
20260506031534 5 0 1.6 8.0 0.00 0.00 0.00 88 1015.0
20260506030034 5 337 1.6 6.4 0.00 0.00 0.00 89 1014.9
20260506024534 5 292 0.0 6.4 0.00 0.00 0.00 88 1014.7
20260506023036 6 0 0.0 4.8 0.00 0.00 0.00 88 1014.7
20260506021530 6 270 1.6 9.7 0.00 0.00 0.00 88 1014.8
20260506020105 6 298 1.6 6.4 0.00 0.00 0.00 87 1015.0
20260506014547 6 42 1.6 9.7 0.00 0.00 0.00 87 1015.0
20260506013034 6 10 3.2 12.9 0.00 0.00 0.00 86 1015.1
20260506011534 6 0 3.2 9.7 0.00 0.00 0.00 85 1015.2
20260506010034 6 0 1.6 9.7 0.00 0.00 0.00 85 1015.2
20260506004541 6 272 1.6 8.0 0.00 0.00 0.00 84 1015.3
20260506003034 6 291 3.2 6.4 0.00 0.00 0.00 83 1015.3
20260506001535 6 191 1.6 8.0 0.00 0.00 0.00 83 1015.4
20260506000050 7 302 1.6 4.8 0.00 0.00 0.00 82 1015.4
20260505234540 7 0 1.6 6.4 0.00 0.00 0.00 81 1015.4
20260505233033 7 312 1.6 4.8 0.00 0.00 0.00 81 1015.6
20260505231534 7 0 1.6 12.9 0.00 0.00 0.00 80 1015.8
20260505230041 7 285 3.2 12.9 0.00 0.00 0.00 81 1015.8
20260505224542 7 285 0.0 8.0 0.00 0.00 0.00 80 1015.7
20260505223038 7 310 0.0 9.7 0.00 0.00 0.00 80 1015.7
20260505221534 7 264 0.0 4.8 0.00 0.00 0.00 80 1015.8
20260505220033 7 0 0.0 9.7 0.00 0.00 0.00 79 1015.9
20260505214530 8 285 1.6 17.7 0.00 0.00 0.00 78 1015.7
20260505213035 8 299 4.8 14.5 0.00 0.00 0.00 81 1015.7
20260505211557 8 0 0.0 6.4 0.00 0.00 0.00 82 1015.6
20260505210041 8 233 0.0 8.0 0.00 0.00 0.00 82 1015.6
20260505204541 8 0 1.6 8.0 0.00 0.00 0.00 80 1015.5
20260505203031 8 0 0.0 4.8 0.00 0.00 0.00 79 1015.5
20260505201533 8 0 1.6 16.1 0.00 0.00 0.00 78 1015.4
20260505200030 8 147 3.2 16.1 0.00 0.00 0.00 76 1015.2
20260505194534 9 161 1.6 12.9 0.00 0.00 0.00 75 1015.1
20260505193031 9 134 0.0 11.3 0.00 0.00 0.00 77 1015.1
20260505191535 10 175 3.2 19.3 0.00 0.00 0.00 79 1014.9
20260505190031 10 221 4.8 16.1 0.00 0.00 0.00 79 1014.8
20260505184539 10 174 3.2 11.3 0.00 0.00 0.00 78 1014.8
20260505183033 10 0 1.6 12.9 0.00 0.00 0.00 77 1014.5
20260505181539 10 97 3.2 17.7 0.00 0.00 0.00 75 1014.6
20260505180033 11 98 3.2 16.1 0.00 0.00 0.00 75 1014.6
20260505174537 11 165 3.2 12.9 0.00 0.00 0.00 73 1014.4
20260505173032 12 139 3.2 16.1 0.00 0.00 0.00 74 1014.3
20260505171539 13 25 3.2 16.1 0.00 0.00 0.00 72 1014.1
20260505170034 13 268 1.6 17.7 0.00 0.00 0.00 69 1013.9
20260505164534 14 317 1.6 9.7 0.00 0.00 0.00 62 1013.8
20260505163030 14 56 1.6 9.7 0.00 0.00 0.00 61 1013.8
20260505161530 14 331 3.2 12.9 0.00 0.00 0.00 61 1013.8
20260505153040 15 152 3.2 12.9 0.00 0.00 0.00 59 1013.8
20260505151531 15 0 1.6 9.7 0.00 0.00 0.00 60 1013.8
20260505124532 14 316 3.2 14.5 0.00 0.00 0.00 66 1013.9
20260505123045 14 295 3.2 11.3 0.00 0.00 0.00 64 1014.1
20260505121535 15 280 4.8 12.9 0.00 0.00 0.00 63 1013.9
20260505120037 15 285 3.2 14.5 0.00 0.00 0.00 62 1013.9
20260505114531 15 14 6.4 19.3 0.00 0.00 0.00 65 1013.9
20260505113033 15 318 3.2 12.9 0.00 0.00 0.00 66 1013.9
20260505111535 15 252 3.2 14.5 0.00 0.00 0.00 64 1014.0
20260505101531 14 331 3.2 12.9 0.00 0.00 0.00 69 1014.0
20260505100034 14 258 3.2 14.5 0.00 0.00 0.00 73 1014.4
20260505094532 13 339 3.2 12.9 0.00 0.00 0.00 73 1014.4
20260505093031 13 360 3.2 12.9 0.00 0.00 0.00 76 1014.4
20260505091533 12 316 4.8 16.1 0.00 0.00 0.00 78 1014.6
20260505090036 12 298 1.6 9.7 0.00 0.00 0.00 78 1014.7
20260505084536 11 355 1.6 11.3 0.00 0.00 0.00 79 1014.7
20260505083032 10 317 3.2 6.4 0.00 0.00 0.00 85 1014.7
20260505081532 10 306 1.6 11.3 0.00 0.00 0.00 85 1014.7
20260505080034 9 285 4.8 8.0 0.00 0.00 0.00 87 1014.6
20260505074534 9 350 1.6 6.4 0.00 0.00 0.00 89 1014.6